When you browse on this site, cookies collect data to enhance your experience and personalize the content and advertising you see.
Visit our Privacy Policy to learn more. By continuing to use the site, you agree to this use of cookies and data.
  • In Hungary
  • List of Countries
  • For 7 days
  • Water Temperature
  • Satellite Maps
  • Weather Map
  • News
  • Weather Widgets
  • user-avatar
    Login

    Hourly Weather Mulhule

    Today, 22 January, Tuesday

    Time Temperature Precipitation Wind Pressure Humidity
    00:00 +27°C° 0 mm 8 mps 761 mmHg 77%
    01:00 +26°C° 0 mm 8 mps 760 mmHg 78%
    02:00 +26°C° 0 mm 8 mps 760 mmHg 79%
    03:00 +26°C° 0 mm 8 mps 760 mmHg 80%
    04:00 +26°C° 0 mm 7 mps 760 mmHg 81%
    05:00 +26°C° 0 mm 7 mps 761 mmHg 81%
    06:00 +26°C° 0 mm 7 mps 761 mmHg 82%
    07:00 +27°C° 0 mm 7 mps 761 mmHg 76%
    08:00 +27°C° 0 mm 8 mps 761 mmHg 71%
    09:00 +29°C° 0 mm 8 mps 762 mmHg 65%
    10:00 +29°C° 0 mm 8 mps 762 mmHg 61%
    11:00 +31°C° 0 mm 9 mps 761 mmHg 57%
    12:00 +32°C° 0 mm 9 mps 761 mmHg 54%
    13:00 +32°C° 0 mm 9 mps 760 mmHg 54%
    14:00 +32°C° 0 mm 9 mps 759 mmHg 54%
    15:00 +33°C° 0 mm 9 mps 758 mmHg 51%
    16:00 +32°C° 0 mm 9 mps 758 mmHg 55%
    17:00 +31°C° 0 mm 9 mps 758 mmHg 59%
    18:00 +28°C° 0 mm 9 mps 758 mmHg 64%
    19:00 +28°C° 0 mm 9 mps 759 mmHg 66%
    20:00 +28°C° 0 mm 10 mps 759 mmHg 69%
    21:00 +27°C° 0 mm 10 mps 759 mmHg 72%
    22:00 +27°C° 0 mm 9 mps 759 mmHg 73%
    23:00 +27°C° 0 mm 9 mps 759 mmHg 75%

    Tomorrow, 23 January, Wednesday

    Time Temperature Precipitation Wind Pressure Humidity
    00:00 +27°C° 0 mm 9 mps 759 mmHg 77%
    01:00 +26°C° 0 mm 9 mps 759 mmHg 78%
    02:00 +26°C° 0 mm 9 mps 759 mmHg 79%
    03:00 +26°C° 0 mm 9 mps 759 mmHg 80%
    04:00 +26°C° 0 mm 9 mps 759 mmHg 80%
    05:00 +26°C° 0 mm 9 mps 759 mmHg 81%
    06:00 +26°C° 0 mm 9 mps 760 mmHg 82%
    07:00 +27°C° 0 mm 9 mps 760 mmHg 77%
    08:00 +27°C° 0 mm 9 mps 761 mmHg 72%
    09:00 +28°C° 0 mm 9 mps 761 mmHg 68%
    10:00 +29°C° 0 mm 10 mps 761 mmHg 64%
    11:00 +31°C° 0 mm 10 mps 761 mmHg 60%
    12:00 +32°C° 0 mm 10 mps 761 mmHg 56%
    13:00 +32°C° 0 mm 10 mps 760 mmHg 56%
    14:00 +31°C° 0 mm 10 mps 759 mmHg 56%
    15:00 +31°C° 0 mm 10 mps 759 mmHg 56%
    16:00 +31°C° 0 mm 10 mps 759 mmHg 60%
    17:00 +29°C° 0 mm 9 mps 759 mmHg 64%
    18:00 +28°C° 0 mm 9 mps 759 mmHg 67%
    19:00 +27°C° 0 mm 9 mps 760 mmHg 69%
    20:00 +27°C° 0 mm 9 mps 760 mmHg 71%
    21:00 +27°C° 0 mm 9 mps 760 mmHg 73%
    22:00 +27°C° 0 mm 10 mps 760 mmHg 75%
    23:00 +26°C° 0 mm 10 mps 760 mmHg 76%

    Day after tomorrow, 24 January, Thursday

    Time Temperature Precipitation Wind Pressure Humidity
    00:00 +26°C° 0 mm 10 mps 760 mmHg 78%
    01:00 +26°C° 0 mm 10 mps 760 mmHg 78%
    02:00 +26°C° 0 mm 9 mps 760 mmHg 79%
    03:00 +26°C° 0 mm 9 mps 760 mmHg 80%
    04:00 +26°C° 0 mm 9 mps 760 mmHg 79%
    05:00 +26°C° 0 mm 10 mps 760 mmHg 79%
    06:00 +26°C° 0 mm 10 mps 761 mmHg 79%
    07:00 +26°C° 0 mm 10 mps 761 mmHg 74%
    08:00 +27°C° 0 mm 10 mps 762 mmHg 70%
    09:00 +28°C° 0 mm 11 mps 763 mmHg 65%
    10:00 +29°C° 0 mm 11 mps 762 mmHg 62%
    11:00 +29°C° 0 mm 11 mps 762 mmHg 58%
    12:00 +31°C° 0 mm 11 mps 762 mmHg 55%
    13:00 +31°C° 0 mm 10 mps 761 mmHg 54%
    14:00 +31°C° 0 mm 10 mps 760 mmHg 54%
    15:00 +31°C° 0 mm 10 mps 759 mmHg 53%
    16:00 +31°C° 0 mm 10 mps 759 mmHg 58%
    17:00 +29°C° 0 mm 9 mps 759 mmHg 62%
    18:00 +28°C° 0 mm 9 mps 760 mmHg 66%
    19:00 +27°C° 0 mm 9 mps 760 mmHg 69%
    20:00 +27°C° 0 mm 10 mps 761 mmHg 72%
    21:00 +27°C° 0 mm 10 mps 761 mmHg 75%
    22:00 +26°C° 0 mm 10 mps 761 mmHg 76%
    23:00 +26°C° 0 mm 10 mps 761 mmHg 77%

    25 January, Friday

    Time Temperature Precipitation Wind Pressure Humidity
    00:00 +26°C° 0 mm 10 mps 761 mmHg 78%
    01:00 +26°C° 0 mm 10 mps 761 mmHg 79%
    02:00 +26°C° 0 mm 10 mps 760 mmHg 79%
    03:00 +26°C° 0 mm 10 mps 760 mmHg 79%
    04:00 +26°C° 0 mm 10 mps 760 mmHg 79%
    05:00 +26°C° 0 mm 10 mps 760 mmHg 79%
    06:00 +26°C° 0 mm 10 mps 761 mmHg 79%
    07:00 +26°C° 0 mm 10 mps 761 mmHg 75%
    08:00 +27°C° 0 mm 10 mps 762 mmHg 71%
    09:00 +28°C° 0 mm 11 mps 762 mmHg 67%
    10:00 +29°C° 0 mm 11 mps 762 mmHg 64%
    11:00 +29°C° 0 mm 11 mps 762 mmHg 60%
    12:00 +31°C° 0 mm 11 mps 761 mmHg 57%
    13:00 +31°C° 0 mm 11 mps 761 mmHg 57%
    14:00 +31°C° 0 mm 10 mps 760 mmHg 56%
    15:00 +31°C° 0 mm 10 mps 759 mmHg 56%
    16:00 +31°C° 0 mm 10 mps 759 mmHg 60%
    17:00 +29°C° 0 mm 10 mps 760 mmHg 64%
    18:00 +28°C° 0 mm 9 mps 760 mmHg 67%
    19:00 +28°C° 0 mm 10 mps 760 mmHg 70%
    20:00 +27°C° 0 mm 10 mps 761 mmHg 73%
    21:00 +27°C° 0 mm 10 mps 762 mmHg 76%
    22:00 +27°C° 0 mm 10 mps 762 mmHg 76%
    23:00 +27°C° 0 mm 10 mps 761 mmHg 77%

    26 January, Saturday

    Time Temperature Precipitation Wind Pressure Humidity
    00:00 +26°C° 0 mm 10 mps 761 mmHg 78%
    01:00 +26°C° 0 mm 10 mps 761 mmHg 78%
    02:00 +26°C° 0 mm 10 mps 761 mmHg 78%
    03:00 +26°C° 0 mm 10 mps 760 mmHg 78%
    04:00 +26°C° 0 mm 10 mps 760 mmHg 78%
    05:00 +26°C° 0 mm 10 mps 761 mmHg 78%
    06:00 +26°C° 0 mm 11 mps 761 mmHg 77%
    07:00 +27°C° 0 mm 11 mps 762 mmHg 74%
    08:00 +27°C° 0 mm 11 mps 762 mmHg 71%
    09:00 +28°C° 0 mm 11 mps 763 mmHg 68%
    10:00 +29°C° 0 mm 11 mps 763 mmHg 64%
    11:00 +31°C° 0 mm 11 mps 762 mmHg 61%
    12:00 +31°C° 0 mm 11 mps 762 mmHg 57%
    13:00 +31°C° 0 mm 11 mps 761 mmHg 57%
    14:00 +31°C° 0 mm 11 mps 760 mmHg 56%
    15:00 +31°C° 0 mm 11 mps 760 mmHg 56%
    16:00 +31°C° 0 mm 11 mps 760 mmHg 60%
    17:00 +29°C° 0 mm 11 mps 760 mmHg 64%
    18:00 +28°C° 0 mm 10 mps 760 mmHg 68%
    19:00 +28°C° 0 mm 11 mps 761 mmHg 70%
    20:00 +28°C° 0 mm 11 mps 761 mmHg 71%
    21:00 +27°C° 0 mm 11 mps 762 mmHg 73%
    22:00 +27°C° 0 mm 11 mps 762 mmHg 74%
    23:00 +27°C° 0 mm 11 mps 762 mmHg 74%

    27 January, Sunday

    Time Temperature Precipitation Wind Pressure Humidity
    00:00 +27°C° 0 mm 11 mps 762 mmHg 75%
    01:00 +27°C° 0 mm 11 mps 761 mmHg 76%
    02:00 +26°C° 0 mm 11 mps 761 mmHg 76%
    03:00 +26°C° 0 mm 11 mps 761 mmHg 77%
    04:00 +26°C° 0 mm 11 mps 761 mmHg 77%
    05:00 +26°C° 0 mm 11 mps 762 mmHg 77%
    06:00 +26°C° 0 mm 11 mps 762 mmHg 77%
    07:00 +27°C° 0 mm 11 mps 762 mmHg 73%
    08:00 +27°C° 0 mm 12 mps 763 mmHg 69%
    09:00 +28°C° 0 mm 12 mps 763 mmHg 65%
    10:00 +29°C° 0 mm 12 mps 763 mmHg 63%
    11:00 +29°C° 0 mm 12 mps 762 mmHg 60%
    12:00 +31°C° 0 mm 12 mps 762 mmHg 57%
    13:00 +31°C° 0 mm 12 mps 761 mmHg 57%
    14:00 +31°C° 0 mm 12 mps 760 mmHg 56%
    15:00 +31°C° 0 mm 12 mps 760 mmHg 56%
    16:00 +29°C° 0 mm 12 mps 760 mmHg 59%
    17:00 +28°C° 0 mm 11 mps 760 mmHg 62%
    18:00 +28°C° 0 mm 11 mps 761 mmHg 66%
    19:00 +27°C° 0 mm 11 mps 761 mmHg 67%
    20:00 +27°C° 0 mm 12 mps 762 mmHg 69%
    21:00 +27°C° 0 mm 12 mps 762 mmHg 70%
    22:00 +27°C° 0 mm 12 mps 762 mmHg 71%
    23:00 +27°C° 0 mm 12 mps 762 mmHg 72%
    Show more